Burlington, IA

4:58 PM CST on December 10, 2016 (GMT -0600)
Burlington Regional

Weather History for KBRL - November, 2012

Change the Weather History Date:

Friday, November 23, 2012

  Actual Average Record
Temperature  
Mean Temperature 33 °F 38 °F  
Max Temperature 41 °F 47 °F 69 °F (1931)
Min Temperature 24 °F 30 °F 3 °F (1950)
Degree Days  
Heating Degree Days 32 26  
Month to date heating degree days 474 479  
Since 1 July heating degree days 1019 873  
Cooling Degree Days 0 0  
Month to date cooling degree days 0 0  
Year to date cooling degree days 1287 1206  
Moisture  
Dew Point 19 °F    
Average Humidity 63    
Maximum Humidity 79    
Minimum Humidity 47    
Precipitation  
Precipitation 0.00 in 0.08 in 0.90 in (2014)
Month to date precipitation 1.37 1.91  
Year to date precipitation 22.39 35.80  
Sea Level Pressure  
Sea Level Pressure 30.26 in    
Wind  
Wind Speed 15 mph (NW)    
Max Wind Speed 28 mph    
Max Gust Speed 40 mph    
Visibility 10 miles    
Events      
T = Trace of Precipitation, MM = Missing Value Source: NWS Daily Summary

Daily Weather History Graph

Daily Weather History Graph

Search for Another Location

Airport or City:

Trip Planner

Search our weather history database for the weather conditions in past years. The results will help you decide how hot, cold, wet, or windy it might be!

Date:

Astronomy

Nov. 23, 2012 Rise Set
Actual Time 7:01 AM CST 4:40 PM CST
Civil Twilight 6:31 AM CST 5:10 PM CST
Nautical Twilight 5:57 AM CST 5:44 PM CST
Astronomical Twilight 5:24 AM CST 6:16 PM CST
Moon 1:56 PM CST (11/23) 2:19 AM CST (11/23)
Length of Visible Light 10h 39m
Length of Day
9h 39m
Waxing Gibbous, 80% of the Moon is Illuminated
Nov 23
Waxing Gibbous
Nov 28
Full
Dec 6
Last Quarter
Dec 13
New
Dec 19
First Quarter

Hourly Weather History & Observations

Time (CST) Temp. Windchill Dew Point Humidity Pressure Visibility Wind Dir Wind Speed Gust Speed Precip Events Conditions
12:53 AM 39.9 °F 32.5 °F 33.1 °F 77% 30.09 in 10.0 mi West 12.7 mph 18.4 mph N/A   Clear
1:53 AM 39.9 °F 31.1 °F 28.9 °F 65% 30.10 in 10.0 mi WNW 17.3 mph 25.3 mph N/A   Clear
2:53 AM 37.9 °F 29.6 °F 26.1 °F 62% 30.10 in 10.0 mi WNW 13.8 mph 24.2 mph N/A   Clear
3:53 AM 36.0 °F 26.0 °F 23.0 °F 59% 30.11 in 10.0 mi NW 17.3 mph 24.2 mph N/A   Clear
4:53 AM 37.0 °F 27.7 °F 21.9 °F 54% 30.12 in 10.0 mi NW 16.1 mph 33.4 mph N/A   Overcast
5:53 AM 34.0 °F 22.7 °F 19.0 °F 54% 30.16 in 10.0 mi WNW 19.6 mph 36.8 mph N/A   Clear
6:53 AM 33.1 °F 20.1 °F 19.0 °F 56% 30.19 in 10.0 mi NW 25.3 mph 36.8 mph N/A   Overcast
7:53 AM 30.9 °F 19.8 °F 19.0 °F 61% 30.22 in 10.0 mi WNW 16.1 mph 24.2 mph N/A   Partly Cloudy
8:53 AM 30.9 °F 18.4 °F 17.1 °F 57% 30.24 in 10.0 mi NW 20.7 mph 39.1 mph N/A   Clear
9:53 AM 30.9 °F 19.1 °F 16.0 °F 54% 30.26 in 10.0 mi NW 18.4 mph 31.1 mph N/A   Clear
10:53 AM 32.0 °F 20.5 °F 17.1 °F 54% 30.29 in 10.0 mi WNW 18.4 mph 28.8 mph N/A   Partly Cloudy
11:53 AM 32.0 °F 19.5 °F 16.0 °F 52% 30.29 in 10.0 mi WNW 21.9 mph 32.2 mph N/A   Scattered Clouds
12:53 PM 33.1 °F 21.9 °F 16.0 °F 50% 30.30 in 10.0 mi NW 18.4 mph 26.5 mph N/A   Clear
1:53 PM 33.1 °F 22.2 °F 17.1 °F 52% 30.30 in 10.0 mi NW 17.3 mph 31.1 mph N/A   Clear
2:53 PM 33.1 °F 21.2 °F 16.0 °F 50% 30.30 in 10.0 mi NW 20.7 mph 27.6 mph N/A   Clear
3:53 PM 30.9 °F 22.2 °F 16.0 °F 54% 30.33 in 10.0 mi WNW 10.4 mph 25.3 mph N/A   Clear
4:53 PM 30.0 °F 20.5 °F 16.0 °F 56% 30.35 in 10.0 mi NW 11.5 mph - N/A   Clear
5:53 PM 28.0 °F 19.3 °F 16.0 °F 61% 30.35 in 10.0 mi NW 9.2 mph - N/A   Clear
6:53 PM 28.0 °F 20.0 °F 16.0 °F 61% 30.35 in 10.0 mi NW 8.1 mph - N/A   Clear
7:53 PM 27.0 °F 18.7 °F 16.0 °F 63% 30.35 in 10.0 mi NW 8.1 mph - N/A   Clear
8:53 PM 26.1 °F 16.8 °F 16.0 °F 66% 30.35 in 10.0 mi NW 9.2 mph - N/A   Clear
9:53 PM 26.1 °F 16.2 °F 15.1 °F 63% 30.35 in 10.0 mi NW 10.4 mph - N/A   Clear
10:53 PM 25.0 °F 14.2 °F 15.1 °F 66% 30.35 in 10.0 mi NW 11.5 mph - N/A   Clear
11:53 PM 24.1 °F 13.7 °F 14.0 °F 65% 30.35 in 10.0 mi NW 10.4 mph - N/A   Clear